When you browse on this site, cookies collect data to enhance your experience and personalize the content and advertising you see.
Visit our Privacy Policy to learn more. By continuing to use the site, you agree to this use of cookies and data.
  • în România
  • Lista ţărilor
  • Pe 7 zile
  • Temperatura apei
  • Hartă satelitară
  • Meteo pe hartă
  • Widget-uri
  • user-avatar
    Intrare

    Meteo pe oră la Bolshaya Fedorovka

    Astăzi, 20 Ianuarie, Duminică

    Timp Temperatura Precipitaţii Vânt Presiune Umiditate
    00:00 -2°C° 0.8 mm 3 m/s 750 mmHg 97%
    01:00 -4°C° 0.4 mm 3 m/s 750 mmHg 96%
    02:00 -5°C° 0.4 mm 4 m/s 750 mmHg 95%
    03:00 -6°C° 0 mm 5 m/s 751 mmHg 95%
    04:00 -10°C° 0 mm 5 m/s 751 mmHg 94%
    05:00 -11°C° 0 mm 4 m/s 751 mmHg 93%
    06:00 -14°C° 0 mm 4 m/s 752 mmHg 93%
    07:00 -15°C° 0 mm 4 m/s 752 mmHg 93%
    08:00 -16°C° 0 mm 4 m/s 753 mmHg 93%
    09:00 -17°C° 0 mm 4 m/s 754 mmHg 93%
    10:00 -16°C° 0 mm 4 m/s 754 mmHg 93%
    11:00 -15°C° 0 mm 4 m/s 755 mmHg 94%
    12:00 -14°C° 0 mm 4 m/s 755 mmHg 94%
    13:00 -14°C° 0 mm 4 m/s 756 mmHg 93%
    14:00 -12°C° 0 mm 4 m/s 756 mmHg 92%
    15:00 -12°C° 0 mm 4 m/s 756 mmHg 92%
    16:00 -13°C° 0 mm 3 m/s 757 mmHg 92%
    17:00 -14°C° 0 mm 3 m/s 757 mmHg 92%
    18:00 -15°C° 0 mm 3 m/s 757 mmHg 92%
    19:00 -15°C° 0 mm 3 m/s 757 mmHg 92%
    20:00 -16°C° 0 mm 3 m/s 757 mmHg 92%
    21:00 -16°C° 0 mm 3 m/s 757 mmHg 92%
    22:00 -16°C° 0 mm 3 m/s 758 mmHg 92%
    23:00 -17°C° 0 mm 4 m/s 758 mmHg 92%

    Mâine, 21 Ianuarie, Luni

    Timp Temperatura Precipitaţii Vânt Presiune Umiditate
    00:00 -17°C° 0 mm 4 m/s 758 mmHg 92%
    01:00 -17°C° 0 mm 4 m/s 758 mmHg 93%
    02:00 -17°C° 0 mm 4 m/s 758 mmHg 93%
    03:00 -18°C° 0 mm 5 m/s 758 mmHg 94%
    04:00 -17°C° 0 mm 5 m/s 757 mmHg 94%
    05:00 -17°C° 0 mm 5 m/s 757 mmHg 94%
    06:00 -17°C° 0 mm 5 m/s 757 mmHg 94%
    07:00 -17°C° 0 mm 6 m/s 757 mmHg 94%
    08:00 -16°C° 0 mm 6 m/s 757 mmHg 93%
    09:00 -16°C° 0 mm 6 m/s 757 mmHg 93%
    10:00 -15°C° 0 mm 6 m/s 757 mmHg 93%
    11:00 -15°C° 0 mm 6 m/s 756 mmHg 92%
    12:00 -14°C° 0 mm 7 m/s 756 mmHg 92%
    13:00 -14°C° 0.1 mm 7 m/s 756 mmHg 92%
    14:00 -14°C° 0.1 mm 6 m/s 755 mmHg 92%
    15:00 -14°C° 0.1 mm 6 m/s 755 mmHg 92%
    16:00 -14°C° 0.4 mm 6 m/s 754 mmHg 92%
    17:00 -14°C° 0.4 mm 7 m/s 754 mmHg 93%
    18:00 -14°C° 0.4 mm 7 m/s 753 mmHg 94%
    19:00 -14°C° 0.6 mm 7 m/s 752 mmHg 94%
    20:00 -14°C° 0.6 mm 6 m/s 752 mmHg 94%
    21:00 -14°C° 0.6 mm 6 m/s 751 mmHg 94%
    22:00 -14°C° 0.5 mm 6 m/s 750 mmHg 94%
    23:00 -12°C° 0.5 mm 5 m/s 749 mmHg 94%

    Poimâine, 22 Ianuarie, Marţi

    Timp Temperatura Precipitaţii Vânt Presiune Umiditate
    00:00 -10°C° 0.5 mm 4 m/s 748 mmHg 94%
    01:00 -9°C° 0.4 mm 3 m/s 748 mmHg 95%
    02:00 -8°C° 0.4 mm 2 m/s 748 mmHg 96%
    03:00 -7°C° 0.4 mm 1 m/s 747 mmHg 97%
    04:00 -9°C° 0.1 mm 2 m/s 747 mmHg 97%
    05:00 -12°C° 0.1 mm 3 m/s 748 mmHg 96%
    06:00 -14°C° 0.1 mm 4 m/s 748 mmHg 96%
    07:00 -14°C° 0 mm 4 m/s 749 mmHg 95%
    08:00 -15°C° 0 mm 5 m/s 750 mmHg 94%
    09:00 -15°C° 0 mm 5 m/s 751 mmHg 93%
    10:00 -17°C° 0 mm 5 m/s 751 mmHg 91%
    11:00 -17°C° 0 mm 5 m/s 752 mmHg 90%
    12:00 -18°C° 0 mm 5 m/s 753 mmHg 89%
    13:00 -18°C° 0 mm 4 m/s 753 mmHg 91%
    14:00 -19°C° 0 mm 4 m/s 754 mmHg 92%
    15:00 -19°C° 0 mm 3 m/s 754 mmHg 93%
    16:00 -21°C° 0 mm 3 m/s 755 mmHg 94%
    17:00 -22°C° 0 mm 3 m/s 755 mmHg 95%
    18:00 -23°C° 0 mm 3 m/s 756 mmHg 96%
    19:00 -24°C° 0 mm 3 m/s 756 mmHg 96%
    20:00 -24°C° 0 mm 3 m/s 756 mmHg 96%
    21:00 -23°C° 0 mm 2 m/s 757 mmHg 96%
    22:00 -24°C° 0 mm 2 m/s 757 mmHg 96%
    23:00 -24°C° 0 mm 2 m/s 758 mmHg 97%

    23 Ianuarie, Miercuri

    Timp Temperatura Precipitaţii Vânt Presiune Umiditate
    00:00 -25°C° 0 mm 2 m/s 758 mmHg 97%
    01:00 -25°C° 0 mm 2 m/s 759 mmHg 97%
    02:00 -26°C° 0 mm 2 m/s 759 mmHg 97%
    03:00 -27°C° 0 mm 2 m/s 760 mmHg 97%
    04:00 -27°C° 0 mm 2 m/s 760 mmHg 97%
    05:00 -27°C° 0 mm 2 m/s 760 mmHg 97%
    06:00 -28°C° 0 mm 2 m/s 761 mmHg 98%
    07:00 -27°C° 0 mm 2 m/s 761 mmHg 98%
    08:00 -27°C° 0 mm 2 m/s 762 mmHg 98%
    09:00 -26°C° 0 mm 2 m/s 763 mmHg 97%
    10:00 -24°C° 0 mm 2 m/s 763 mmHg 97%
    11:00 -23°C° 0 mm 2 m/s 763 mmHg 96%
    12:00 -20°C° 0 mm 2 m/s 763 mmHg 95%
    13:00 -20°C° 0 mm 2 m/s 764 mmHg 96%
    14:00 -19°C° 0 mm 2 m/s 764 mmHg 96%
    15:00 -19°C° 0 mm 2 m/s 764 mmHg 96%
    16:00 -20°C° 0 mm 2 m/s 764 mmHg 97%
    17:00 -20°C° 0 mm 2 m/s 764 mmHg 98%
    18:00 -21°C° 0 mm 2 m/s 765 mmHg 98%
    19:00 -21°C° 0 mm 2 m/s 765 mmHg 98%
    20:00 -21°C° 0 mm 2 m/s 765 mmHg 98%
    21:00 -23°C° 0 mm 2 m/s 765 mmHg 98%
    22:00 -24°C° 0 mm 3 m/s 765 mmHg 98%
    23:00 -24°C° 0 mm 3 m/s 765 mmHg 97%

    24 Ianuarie, Joi

    Timp Temperatura Precipitaţii Vânt Presiune Umiditate
    00:00 -24°C° 0 mm 3 m/s 766 mmHg 97%
    01:00 -23°C° 0 mm 3 m/s 766 mmHg 97%
    02:00 -24°C° 0 mm 4 m/s 765 mmHg 97%
    03:00 -23°C° 0 mm 4 m/s 765 mmHg 96%
    04:00 -23°C° 0 mm 4 m/s 765 mmHg 95%
    05:00 -22°C° 0 mm 4 m/s 765 mmHg 94%
    06:00 -22°C° 0 mm 5 m/s 765 mmHg 93%
    07:00 -22°C° 0 mm 5 m/s 765 mmHg 93%
    08:00 -21°C° 0 mm 5 m/s 765 mmHg 92%
    09:00 -22°C° 0 mm 6 m/s 765 mmHg 91%
    10:00 -21°C° 0 mm 6 m/s 765 mmHg 90%
    11:00 -20°C° 0 mm 6 m/s 765 mmHg 88%
    12:00 -19°C° 0 mm 7 m/s 765 mmHg 87%
    13:00 -19°C° 0 mm 7 m/s 765 mmHg 87%
    14:00 -18°C° 0 mm 6 m/s 764 mmHg 87%
    15:00 -18°C° 0 mm 6 m/s 764 mmHg 87%
    16:00 -18°C° 0 mm 6 m/s 764 mmHg 87%
    17:00 -20°C° 0 mm 6 m/s 764 mmHg 88%
    18:00 -20°C° 0 mm 6 m/s 764 mmHg 88%
    19:00 -21°C° 0 mm 6 m/s 764 mmHg 88%
    20:00 -21°C° 0 mm 6 m/s 764 mmHg 88%
    21:00 -20°C° 0 mm 5 m/s 764 mmHg 87%
    22:00 -21°C° 0 mm 5 m/s 764 mmHg 88%
    23:00 -21°C° 0 mm 5 m/s 764 mmHg 88%

    25 Ianuarie, Vineri

    Timp Temperatura Precipitaţii Vânt Presiune Umiditate
    00:00 -22°C° 0 mm 4 m/s 764 mmHg 88%
    01:00 -22°C° 0 mm 4 m/s 764 mmHg 89%
    02:00 -23°C° 0 mm 4 m/s 764 mmHg 90%
    03:00 -22°C° 0 mm 3 m/s 764 mmHg 91%
    04:00 -23°C° 0 mm 3 m/s 764 mmHg 92%
    05:00 -23°C° 0 mm 3 m/s 764 mmHg 92%
    06:00 -24°C° 0 mm 3 m/s 764 mmHg 93%
    07:00 -23°C° 0 mm 2 m/s 764 mmHg 93%
    08:00 -23°C° 0 mm 2 m/s 764 mmHg 94%
    09:00 -23°C° 0 mm 2 m/s 764 mmHg 94%
    10:00 -20°C° 0 mm 2 m/s 764 mmHg 94%
    11:00 -19°C° 0 mm 2 m/s 764 mmHg 94%
    12:00 -15°C° 0 mm 1 m/s 764 mmHg 93%
    13:00 -17°C° 0.1 mm 2 m/s 764 mmHg 94%
    14:00 -17°C° 0.1 mm 2 m/s 763 mmHg 95%
    15:00 -16°C° 0.1 mm 2 m/s 763 mmHg 96%
    16:00 -16°C° 0.2 mm 2 m/s 763 mmHg 96%
    17:00 -16°C° 0.2 mm 2 m/s 763 mmHg 96%
    18:00 -17°C° 0.2 mm 3 m/s 763 mmHg 96%
    19:00 -17°C° 0.5 mm 3 m/s 763 mmHg 96%
    20:00 -17°C° 0.5 mm 3 m/s 763 mmHg 96%
    21:00 -18°C° 0.5 mm 4 m/s 763 mmHg 96%
    22:00 -17°C° 0.5 mm 4 m/s 762 mmHg 96%
    23:00 -17°C° 0.5 mm 4 m/s 762 mmHg 96%
    Arată mai mult